SL-16 DEB, 22614

Orbit data source: Space-Track

SL-16 DEB, 22614 is space debris in LEO originally from a launch on Fri, 26 Mar 1993 UTC launched from the Tyuratam Missile And Space Complex (TTMTR). Debris objects in space refer to the collection of defunct objects orbiting the Earth. Examples of debris include non-operational satellites, rocket bodies, and fragments generated from explosions, collisions, or faulty payload assembly.

Loading next visibility...
Identifier
22614, 1993-016Y
Orbit
LEO
Country
Flag of CISCIS
Related business
Manufacturer
Unknown
Mission
Spacecraft
Bus & Motor
Unknown
Mass
Unknown
Launch date (UTC)
1993-03-26 (33 years ago)
Launch vehicle
Unknown
Launch site
Tyuratam Missile And Space Complex (TTMTR)
Object type
Payload
Rocket body
Debris
Shape & HBR
Unknown shape, 0.1 m
Radar Cross Section
Medium (>0.1 m² and <1 m²)

Expand to show TLE details & history
Last TLE update: 16 hours ago

TLE from 16 hours ago
0 SL-16 DEB
1 22614U 93016Y   26255.17393183  .00000028  00000-0  55199-4 0  9992
2 22614  70.9974 289.3102 0126798  27.0172  39.4503 13.89696921692443
Epoch: 2026-09-12T04:10Z
TLE epoch observation values (Epoch: 2026-09-12T04:10:27.710Z)
Latitude
60.90723°
Longitude
-86.49334°
Altitude
868.466 km
Speed
7.46 km/s
True Right ascension
21h 49m 14s
True Declination
60° 45' 47"
Sunlit
Object was in daylight at epoch
Visualization orbit readout
Latitude
Unknown
Longitude
Unknown
Altitude
Unknown
Speed
Unknown
Apparent Right ascension
Unknown
Apparent Declination
Unknown
Sunlit
N/A
Visualization observer readout
Local Sidereal Time
12:41:18
Azimuth
Unknown
Elevation
Unknown
Doppler factor
Unknown
Orbital elements
Apogee altitude
1,020.279 km
Perigee altitude
835.007 km
Semi-major axis
7,305.78 km
Eccentricity
0.01268
Inclination
70.9974°
RAAN
289.3102°
Arg. of periapsis
27.0172°
True anomaly
40.38494°
Mean anomaly
39.4503°
Eccentric anomaly
39.91647°
Mean motion
3.47571 °/min
Orbital period
103.58 mins
BSTAR
0.000055199
Loading maneuver chart data...
Computing Atmospheric mass density...
Loading historical data...
Loading historical data...
Loading historical data...
Loading historical data...
Loading historical data...
Loading historical data...
Loading historical data...

Documentation

Showing up to 5 results
|